Tracking 35334 objects as of 12-Sep-2026
HD Live streaming from Space Station
objects crossing your sky now

FREGAT R/B


FREGAT R/B is no longer on orbit


NORAD ID: 46736
Int'l Code: 2011-037ND
Launch date: July 18, 2011
Source: Commonwealth of Independent States (former USSR) (CIS)
Launch site: TYURATAM MISSILE AND SPACE COMPLEX (TTMTR)
Decay date: 2021-08-09

Note: This is a ROCKET BODY
Your satellite tracking list
Your tracking list is empty




NASA's NSSDC Master Catalog

Two Line Element Set (TLE):
1 46736U 11037ND  21213.04461974 -.00011029  00000-0  00000-0 0  9996
2 46736  48.1106  40.1666 9472386 273.1150 359.5150  0.11545654  1043
Source of the keplerian elements: AFSPC